Windom, MN

6:08 AM CDT on September 26, 2017 (GMT -0500)
Windom Municipal

Weather History for KMWM - April, 2013

Change the Weather History Date:

Friday, April 5, 2013

  Actual Average Record
Temperature  
Mean Temperature 36 °F -  
Max Temperature 46 °F 50 °F 75 °F (2004)
Min Temperature 26 °F 28 °F 13 °F (1979)
Degree Days  
Heating Degree Days 29    
Moisture  
Dew Point 28 °F    
Average Humidity 71    
Maximum Humidity 93    
Minimum Humidity 49    
Precipitation  
Precipitation 0.00 in - - ()
Sea Level Pressure  
Sea Level Pressure 30.04 in    
Wind  
Wind Speed 12 mph (East)    
Max Wind Speed 25 mph    
Max Gust Speed 33 mph    
Visibility 10 miles    
Events      
Averages and records for this station are not official NWS values.
T = Trace of Precipitation, MM = Missing Value Source: NWS Daily Summary

Daily Weather History Graph

Daily Weather History Graph

Search for Another Location

Airport or City:

Trip Planner

Search our weather history database for the weather conditions in past years. The results will help you decide how hot, cold, wet, or windy it might be!

Date:

Astronomy

Apr. 05, 2013 Rise Set
Actual Time 6:54 AM CDT 7:52 PM CDT
Civil Twilight 6:24 AM CDT 8:21 PM CDT
Nautical Twilight 5:49 AM CDT 8:57 PM CDT
Astronomical Twilight 5:13 AM CDT 9:33 PM CDT
Moon 4:11 AM CDT (4/5) 3:08 PM CDT (4/5)
Length of Visible Light 13h 57m
Length of Day
12h 58m
Waning Crescent, 23% of the Moon is Illuminated
Apr 5
Waning Crescent
Apr 10
New
Apr 18
First Quarter
Apr 25
Full
May 2
Last Quarter

Hourly Weather History & Observations

Time (CDT) Temp. Windchill Dew Point Humidity Pressure Visibility Wind Dir Wind Speed Gust Speed Precip Events Conditions
12:13 AM 26.6 °F 15.2 °F 24.8 °F 93% 30.19 in 10.0 mi NNW 13.8 mph - N/A   Clear
12:32 AM 28.4 °F 18.5 °F 24.8 °F 86% 30.19 in 10.0 mi NNW 11.5 mph - N/A   Scattered Clouds
12:52 AM 26.6 °F 17.5 °F 24.8 °F 93% 30.19 in 10.0 mi NNW 9.2 mph - N/A   Mostly Cloudy
1:13 AM 26.6 °F 16.2 °F 24.8 °F 93% 30.18 in 10.0 mi NNW 11.5 mph - N/A   Mostly Cloudy
1:32 AM 26.6 °F 16.8 °F 24.8 °F 93% 30.19 in 10.0 mi NNW 10.4 mph - N/A   Scattered Clouds
1:52 AM 26.6 °F 17.5 °F 24.8 °F 93% 30.20 in 10.0 mi NNW 9.2 mph - N/A   Scattered Clouds
2:12 AM 26.6 °F 17.5 °F 24.8 °F 93% 30.19 in 10.0 mi NNW 9.2 mph - N/A   Mostly Cloudy
2:32 AM 26.6 °F 18.2 °F 24.8 °F 93% 30.19 in 10.0 mi NNW 8.1 mph - N/A   Mostly Cloudy
2:52 AM 26.6 °F 17.5 °F 24.8 °F 93% 30.19 in 10.0 mi NNW 9.2 mph - N/A   Scattered Clouds
3:12 AM 26.6 °F 16.8 °F 24.8 °F 93% 30.19 in 10.0 mi NNW 10.4 mph - N/A   Mostly Cloudy
3:33 AM 26.6 °F 16.8 °F 24.8 °F 93% 30.19 in 10.0 mi NNW 10.4 mph - N/A   Mostly Cloudy
3:52 AM 26.6 °F 18.2 °F 24.8 °F 93% 30.19 in 10.0 mi North 8.1 mph - N/A   Mostly Cloudy
4:12 AM 26.6 °F 17.5 °F 24.8 °F 93% 30.19 in 10.0 mi North 9.2 mph - N/A   Mostly Cloudy
4:33 AM 26.6 °F 20.0 °F 24.8 °F 93% 30.19 in 10.0 mi North 5.8 mph - N/A   Overcast
4:52 AM 26.6 °F 21.2 °F 24.8 °F 93% 30.19 in 10.0 mi North 4.6 mph - N/A   Overcast
5:12 AM 26.6 °F 19.1 °F 24.8 °F 93% 30.18 in 10.0 mi North 6.9 mph - N/A   Overcast
5:32 AM 26.6 °F 19.1 °F 24.8 °F 93% 30.19 in 10.0 mi North 6.9 mph - N/A   Mostly Cloudy
5:52 AM 26.6 °F 19.1 °F 24.8 °F 93% 30.18 in 10.0 mi NNE 6.9 mph - N/A   Mostly Cloudy
6:13 AM 26.6 °F 19.1 °F 24.8 °F 93% 30.18 in 10.0 mi NNE 6.9 mph - N/A   Mostly Cloudy
6:32 AM 26.6 °F 21.2 °F 24.8 °F 93% 30.18 in 10.0 mi NE 4.6 mph - N/A   Overcast
6:53 AM 26.6 °F 21.2 °F 24.8 °F 93% 30.18 in 10.0 mi NE 4.6 mph - N/A   Overcast
7:12 AM 28.4 °F 24.6 °F 24.8 °F 86% 30.18 in 10.0 mi NE 3.5 mph - N/A   Overcast
7:32 AM 28.4 °F 21.2 °F 24.8 °F 86% 30.18 in 10.0 mi ENE 6.9 mph - N/A   Overcast
7:52 AM 28.4 °F 21.2 °F 26.6 °F 93% 30.18 in 10.0 mi ENE 6.9 mph - N/A   Mostly Cloudy
8:12 AM 30.2 °F 21.9 °F 24.8 °F 80% 30.18 in 10.0 mi East 9.2 mph - N/A   Scattered Clouds
8:32 AM 30.2 °F 23.4 °F 24.8 °F 80% 30.18 in 10.0 mi East 6.9 mph - N/A   Scattered Clouds
8:53 AM 30.2 °F 21.9 °F 24.8 °F 80% 30.18 in 10.0 mi East 9.2 mph - N/A   Scattered Clouds
9:12 AM 30.2 °F 21.3 °F 24.8 °F 80% 30.17 in 10.0 mi East 10.4 mph - N/A   Mostly Cloudy
9:32 AM 32.0 °F 24.8 °F 23.0 °F 69% 30.17 in 10.0 mi East 8.1 mph - N/A   Mostly Cloudy
9:53 AM 33.8 °F 27.0 °F 23.0 °F 65% 30.16 in 10.0 mi East 8.1 mph - N/A   Mostly Cloudy
10:12 AM 33.8 °F 25.8 °F 23.0 °F 65% 30.16 in 10.0 mi ESE 10.4 mph - N/A   Scattered Clouds
10:32 AM 33.8 °F 25.3 °F 24.8 °F 70% 30.16 in 10.0 mi East 11.5 mph - N/A   Scattered Clouds
10:53 AM 35.6 °F 27.5 °F 24.8 °F 65% 30.14 in 10.0 mi ESE 11.5 mph - N/A   Scattered Clouds
11:12 AM 37.4 °F 28.9 °F 24.8 °F 60% 30.13 in 10.0 mi ESE 13.8 mph - N/A   Scattered Clouds
11:32 AM 39.2 °F 29.8 °F 24.8 °F 56% 30.10 in 10.0 mi ESE 18.4 mph - N/A   Clear
11:53 AM 39.2 °F 30.5 °F 24.8 °F 56% 30.10 in 10.0 mi ESE 16.1 mph 19.6 mph N/A   Clear
12:12 PM 42.8 °F 36.2 °F 24.8 °F 49% 30.10 in 10.0 mi SE 12.7 mph 18.4 mph N/A   Clear
12:32 PM 42.8 °F 35.4 °F 24.8 °F 49% 30.11 in 10.0 mi SE 15.0 mph 23.0 mph N/A   Clear
12:53 PM 42.8 °F 34.8 °F 24.8 °F 49% 30.11 in 10.0 mi SSE 17.3 mph - N/A   Clear
1:12 PM 42.8 °F 36.2 °F 26.6 °F 53% 30.09 in 10.0 mi SE 12.7 mph 17.3 mph N/A   Clear
1:32 PM 44.6 °F 37.8 °F 26.6 °F 49% 30.07 in 10.0 mi SE 15.0 mph 23.0 mph N/A   Clear
1:53 PM 44.6 °F 36.9 °F 26.6 °F 49% 30.04 in 10.0 mi SE 18.4 mph 23.0 mph N/A   Clear
2:12 PM 44.6 °F 36.9 °F 26.6 °F 49% 30.03 in 10.0 mi SE 18.4 mph 24.2 mph N/A   Clear
2:32 PM 44.6 °F 37.2 °F 26.6 °F 49% 30.01 in 10.0 mi SE 17.3 mph 26.5 mph N/A   Clear
2:53 PM 44.6 °F 36.6 °F 26.6 °F 49% 30.00 in 10.0 mi SE 19.6 mph 25.3 mph N/A   Scattered Clouds
3:12 PM 44.6 °F 36.6 °F 28.4 °F 53% 29.99 in 10.0 mi ESE 19.6 mph 28.8 mph N/A   Clear
3:32 PM 44.6 °F 36.6 °F 28.4 °F 53% 29.98 in 10.0 mi ESE 19.6 mph 27.6 mph N/A   Clear
3:53 PM 46.4 °F 39.0 °F 28.4 °F 50% 29.95 in 10.0 mi ESE 19.6 mph 28.8 mph N/A   Scattered Clouds
4:12 PM 44.6 °F 35.7 °F 28.4 °F 53% 29.92 in 10.0 mi ESE 24.2 mph 32.2 mph N/A   Clear
4:32 PM 46.4 °F 38.3 °F 30.2 °F 53% 29.91 in 10.0 mi ESE 23.0 mph 32.2 mph N/A   Clear
4:53 PM 46.4 °F 37.9 °F 30.2 °F 53% 29.89 in 10.0 mi ESE 25.3 mph 29.9 mph N/A   Clear
5:12 PM 46.4 °F 37.9 °F 30.2 °F 53% 29.88 in 10.0 mi ESE 25.3 mph 33.4 mph N/A   Clear
5:32 PM 46.4 °F 38.5 °F 30.2 °F 53% 29.88 in 10.0 mi SE 21.9 mph 28.8 mph N/A   Clear
5:53 PM 46.4 °F 38.5 °F 32.0 °F 57% 29.84 in 10.0 mi ESE 21.9 mph 28.8 mph N/A   Clear
6:12 PM 46.4 °F 39.8 °F 33.8 °F 62% 29.88 in 10.0 mi ESE 16.1 mph 27.6 mph N/A   Clear
6:32 PM 46.4 °F 39.8 °F 33.8 °F 62% 29.86 in 10.0 mi ESE 16.1 mph 24.2 mph N/A   Clear
6:53 PM 46.4 °F 40.1 °F 33.8 °F 62% 29.85 in 10.0 mi ESE 15.0 mph 21.9 mph N/A   Clear
7:12 PM 46.4 °F 41.5 °F 33.8 °F 62% 29.86 in 10.0 mi ESE 10.4 mph - N/A   Clear
7:32 PM 46.4 °F 41.5 °F 33.8 °F 62% 29.86 in 10.0 mi East 10.4 mph - N/A   Scattered Clouds
7:53 PM 44.6 °F 37.8 °F 33.8 °F 66% 29.84 in 10.0 mi ESE 15.0 mph 18.4 mph N/A   Scattered Clouds
8:12 PM 44.6 °F 37.8 °F 33.8 °F 66% 29.84 in 10.0 mi East 15.0 mph 21.9 mph N/A   Clear
8:32 PM 44.6 °F 38.4 °F 33.8 °F 66% 29.83 in 10.0 mi East 12.7 mph 17.3 mph N/A   Scattered Clouds
8:53 PM 44.6 °F 38.8 °F 33.8 °F 66% 29.82 in 10.0 mi East 11.5 mph 16.1 mph N/A   Scattered Clouds
9:12 PM 44.6 °F 37.8 °F 33.8 °F 66% 29.81 in 10.0 mi ESE 15.0 mph - N/A   Clear
9:32 PM 44.6 °F 37.4 °F 33.8 °F 66% 29.80 in 10.0 mi ESE 16.1 mph 19.6 mph N/A   Clear
9:53 PM 44.6 °F 37.4 °F 33.8 °F 66% 29.80 in 10.0 mi ESE 16.1 mph - N/A   Clear
10:12 PM 44.6 °F 37.4 °F 33.8 °F 66% 29.79 in 10.0 mi ESE 16.1 mph - N/A   Scattered Clouds
10:32 PM 44.6 °F 37.2 °F 33.8 °F 66% 29.78 in 10.0 mi ESE 17.3 mph 21.9 mph N/A   Scattered Clouds
10:52 PM 42.8 °F 34.8 °F 32.0 °F 66% 29.77 in 10.0 mi ESE 17.3 mph 25.3 mph N/A   Clear
11:12 PM 42.8 °F 35.1 °F 32.0 °F 66% 29.76 in 10.0 mi ESE 16.1 mph 21.9 mph N/A   Clear
11:33 PM 42.8 °F 35.4 °F 32.0 °F 66% 29.75 in 10.0 mi ESE 15.0 mph 19.6 mph N/A   Scattered Clouds
11:52 PM 42.8 °F 35.4 °F 32.0 °F 66% 29.74 in 10.0 mi SE 15.0 mph 23.0 mph N/A   Clear